Williamsport, PA

7:46 AM EDT on August 19, 2017 (GMT -0400)
Williamsport Rgnl

Weather History for KIPT - October, 2012

Change the Weather History Date:

Saturday, October 13, 2012

  Actual Average Record
Temperature  
Mean Temperature 40 °F 53 °F  
Max Temperature 53 °F 63 °F 83 °F (1954)
Min Temperature 27 °F 42 °F 27 °F (2012)
Degree Days  
Heating Degree Days 25 13  
Month to date heating degree days 148 136  
Since 1 July heating degree days 245 264  
Cooling Degree Days 0 0  
Month to date cooling degree days 5 1  
Year to date cooling degree days 951 698  
Moisture  
Dew Point 27 °F    
Average Humidity 65    
Maximum Humidity 92    
Minimum Humidity 38    
Precipitation  
Precipitation T in 0.11 in 2.95 in (1990)
Month to date precipitation 0.68 1.53  
Year to date precipitation 27.22 32.72  
Snow  
Snow 0.00 in 0.00 in 0.00 in (2002)
Month to date snowfall 0.0 0.0  
Since 1 July snowfall 0.0 0.0  
Since 1 September snowfall 0.0 0.0  
Snow Depth 0.00 in    
Sea Level Pressure  
Sea Level Pressure 30.41 in    
Wind  
Wind Speed 6 mph (East)    
Max Wind Speed 21 mph    
Max Gust Speed 28 mph    
Visibility 10 miles    
Events      
T = Trace of Precipitation, MM = Missing Value Source: NWS Daily Summary

Daily Weather History Graph

Daily Weather History Graph

Search for Another Location

Airport or City:

Trip Planner

Search our weather history database for the weather conditions in past years. The results will help you decide how hot, cold, wet, or windy it might be!

Date:

Astronomy

Oct. 13, 2012 Rise Set
Actual Time 7:17 AM EDT 6:29 PM EDT
Civil Twilight 6:49 AM EDT 6:56 PM EDT
Nautical Twilight 6:17 AM EDT 7:28 PM EDT
Astronomical Twilight 5:45 AM EDT 8:00 PM EDT
Moon 5:04 AM EDT (10/13) 5:12 PM EDT (10/13)
Length of Visible Light 12h 07m
Length of Day
11h 11m
Waning Crescent, 5% of the Moon is Illuminated
Oct 13
Waning Crescent
Oct 15
New
Oct 21
First Quarter
Oct 29
Full
Nov 6
Last Quarter

Hourly Weather History & Observations

Time (EDT) Temp. Windchill Dew Point Humidity Pressure Visibility Wind Dir Wind Speed Gust Speed Precip Events Conditions
12:54 AM 32.0 °F 28.7 °F 26.1 °F 79% 30.48 in 10.0 mi North 3.5 mph - N/A   Clear
1:54 AM 30.0 °F 26.5 °F 26.1 °F 85% 30.48 in 10.0 mi NNW 3.5 mph - N/A   Clear
2:54 AM 30.0 °F - 26.1 °F 85% 30.48 in 10.0 mi Calm Calm - N/A   Clear
3:54 AM 28.0 °F 24.2 °F 25.0 °F 88% 30.48 in 10.0 mi WNW 3.5 mph - N/A   Clear
4:54 AM 28.9 °F - 26.1 °F 89% 30.49 in 10.0 mi Calm Calm - N/A   Clear
5:54 AM 28.0 °F - 25.0 °F 88% 30.51 in 10.0 mi Calm Calm - N/A   Clear
6:54 AM 28.0 °F - 24.1 °F 85% 30.51 in 10.0 mi Calm Calm - N/A   Clear
7:54 AM 28.0 °F 24.2 °F 25.0 °F 88% 30.51 in 10.0 mi NE 3.5 mph - N/A   Clear
8:37 AM 30.2 °F - 26.6 °F 86% 30.50 in 10.0 mi Calm Calm - N/A   Partly Cloudy
8:54 AM 32.0 °F - 28.0 °F 85% 30.53 in 10.0 mi Calm Calm - N/A   Scattered Clouds
9:54 AM 35.1 °F - 28.9 °F 78% 30.54 in 10.0 mi Calm Calm - N/A   Clear
10:54 AM 41.0 °F - 30.9 °F 67% 30.52 in 10.0 mi Calm Calm - N/A   Clear
11:54 AM 46.9 °F - 25.0 °F 42% 30.47 in 10.0 mi South 6.9 mph 18.4 mph N/A   Clear
12:54 PM 48.9 °F - 26.1 °F 41% 30.42 in 10.0 mi Variable 6.9 mph - N/A   Clear
1:54 PM 51.8 °F - 26.6 °F 38% 30.37 in 10.0 mi Variable 4.6 mph - N/A   Clear
2:54 PM 52.0 °F - 26.1 °F 37% 30.37 in 10.0 mi Variable 6.9 mph - N/A   Clear
3:54 PM 52.0 °F - 27.0 °F 38% 30.35 in 10.0 mi South 10.4 mph 17.3 mph N/A   Clear
4:54 PM 52.0 °F - 27.0 °F 38% 30.32 in 10.0 mi SE 6.9 mph 17.3 mph N/A   Overcast
5:54 PM 51.1 °F - 28.0 °F 41% 30.30 in 10.0 mi ESE 9.2 mph - N/A   Mostly Cloudy
6:54 PM 51.1 °F - 28.0 °F 41% 30.29 in 10.0 mi SSE 16.1 mph 21.9 mph N/A   Clear
8:54 PM 51.1 °F - 30.0 °F 44% 30.26 in 10.0 mi SSE 11.5 mph 21.9 mph N/A   Clear
9:54 PM 51.8 °F - 30.2 °F 44% 30.24 in 10.0 mi Variable 4.6 mph - N/A   Clear
10:54 PM 51.1 °F - 32.0 °F 48% 30.24 in 10.0 mi ENE 5.8 mph - N/A   Clear
11:54 PM 50.0 °F - 33.8 °F 54% 30.19 in 10.0 mi NNE 9.2 mph - N/A   Partly Cloudy